Flag for Angola Weather past 2 weeks in Luanda, Angola

Now
75 °F

Partly sunny.


Feels Like: 77 °F
Forecast: 68 / 80 °F
Wind: 5 mph from South

Location: Luanda Airport

Current Time: Jul 7, 2015 at 10:38:14 AM

Latest Report: Jul 7, 2015 at 10:00 AM


Visibility: N/A

Pressure: 29.98 "Hg

Humidity: 74%

Dew point: 66 °F

Location of LuandaLocation

Historic Weather in Luanda — Graph

°F

Luanda temperature yesterday

Maximum temperature yesterday: 73 °F (at 11:00 AM)
Minimum temperature yesterday: 68 °F (at 6:00 AM)
Average temperature yesterday: 71 °F

Past Weeks' High & Low Weather Summary

 TemperatureHumidityPressure
High84 °F (Jun 24, 1:00 PM)100% (Jul 5, 8:00 AM)30.18 "Hg (Jul 5, 8:00 AM)
Low64 °F (Jun 28, 3:00 AM)48% (Jun 24, 1:00 PM)29.89 "Hg (Jul 2, 4:00 PM)
Average71 °F78%30.03 "Hg
* Reported Jun 22 9:00 AM — Jul 7 9:00 AM, Luanda, Weather by CustomWeather, © 2015

Note: Actual official high and low records may vary slightly from our data, if they occured in-between our weather recording intervals... More about our weather records

Advertising

Luanda weather history for previous 24 hours

 ConditionsComfort  
Time TempWeatherWind HumidityBarometerVisibility
9:00 AM
Tue, Jul 7
73 °FBroken clouds.5 mph78%29.98 "Hg4 mi
8:00 AM72 °FFog.5 mph83%29.98 "Hg2 mi
7:00 AM70 °FFog.6 mph83%29.95 "Hg2 mi
6:00 AM70 °FPassing clouds.5 mph83%29.95 "HgN/A
5:00 AM70 °FPassing clouds.No wind83%29.95 "HgN/A
4:00 AM70 °FPassing clouds.5 mph83%29.92 "HgN/A
10:00 PM
Mon, Jul 6
70 °FPassing clouds.6 mph88%29.98 "HgN/A
8:00 PM70 °FPassing clouds.8 mph88%29.95 "HgN/A
7:00 PM70 °FPassing clouds.9 mph83%29.95 "HgN/A
6:00 PM70 °FPassing clouds.9 mph83%29.92 "HgN/A
5:00 PM72 °FPartly sunny.9 mph78%29.89 "HgN/A
4:00 PM72 °FPartly sunny.9 mph78%29.89 "HgN/A
3:00 PM73 °FPartly sunny.9 mph74%29.89 "HgN/A
2:00 PM73 °FPartly sunny.7 mph74%29.92 "HgN/A
1:00 PM73 °FBroken clouds.7 mph74%29.95 "HgN/A
12:00 PM73 °FOvercast.2 mph74%29.98 "HgN/A
11:00 AM73 °FPartly sunny.5 mph74%29.98 "HgN/A
10:00 AM72 °FMild.5 mph78%30.01 "Hg4 mi
Weather by CustomWeather, © 2015

See weather overviewHow to use our weather pages